Year,Month,Day,Hour,Minute,Value (Times are PST for temperature in C)
2008,07,16,00,00,14.30
2008,07,16,00,01,14.30
2008,07,16,00,02,14.30
2008,07,16,00,03,14.20
2008,07,16,00,04,14.20
2008,07,16,00,05,14.20
2008,07,16,00,06,14.20
2008,07,16,00,07,14.20
2008,07,16,00,08,14.20
2008,07,16,00,09,14.10
2008,07,16,00,10,14.10
2008,07,16,00,11,14.10
2008,07,16,00,12,14.00
2008,07,16,00,13,14.00
2008,07,16,00,14,14.00
2008,07,16,00,15,14.00
2008,07,16,00,16,14.00
2008,07,16,00,17,13.90
2008,07,16,00,18,13.90
2008,07,16,00,19,13.90
2008,07,16,00,20,13.90
2008,07,16,00,21,13.90
2008,07,16,00,22,13.80
2008,07,16,00,23,13.80
2008,07,16,00,24,13.80
2008,07,16,00,25,13.80
2008,07,16,00,26,13.80
2008,07,16,00,27,13.70
2008,07,16,00,28,13.70
2008,07,16,00,29,13.70
2008,07,16,00,30,13.60
2008,07,16,00,31,13.60
2008,07,16,00,32,13.60
2008,07,16,00,33,13.60
2008,07,16,00,34,13.60
2008,07,16,00,35,13.60
2008,07,16,00,36,13.50
2008,07,16,00,37,13.50
2008,07,16,00,38,13.50
2008,07,16,00,39,13.40
2008,07,16,00,40,13.40
2008,07,16,00,41,13.40
2008,07,16,00,42,13.30
2008,07,16,00,43,13.30
2008,07,16,00,44,13.20
2008,07,16,00,45,13.20
2008,07,16,00,46,13.20
2008,07,16,00,47,13.20
2008,07,16,00,48,13.30
2008,07,16,00,49,13.30
2008,07,16,00,50,13.30
2008,07,16,00,51,13.30
2008,07,16,00,52,13.40
2008,07,16,00,53,13.40
2008,07,16,00,54,13.50
2008,07,16,00,55,13.50
2008,07,16,00,56,13.60
2008,07,16,00,57,13.70
2008,07,16,00,58,13.80
2008,07,16,00,59,13.80
2008,07,16,01,00,13.80
2008,07,16,01,01,13.90
2008,07,16,01,02,13.90
2008,07,16,01,03,13.90
2008,07,16,01,04,13.90
2008,07,16,01,05,13.90
2008,07,16,01,06,13.90
2008,07,16,01,07,13.90
2008,07,16,01,08,13.90
2008,07,16,01,09,13.90
2008,07,16,01,10,13.80
2008,07,16,01,11,13.80
2008,07,16,01,12,13.80
2008,07,16,01,13,13.70
2008,07,16,01,14,13.70
2008,07,16,01,15,13.60
2008,07,16,01,16,13.60
2008,07,16,01,17,13.50
2008,07,16,01,18,13.50
2008,07,16,01,19,13.40
2008,07,16,01,20,13.40
2008,07,16,01,21,13.30
2008,07,16,01,22,13.30
2008,07,16,01,23,13.30
2008,07,16,01,24,13.20
2008,07,16,01,25,13.20
2008,07,16,01,26,13.20
2008,07,16,01,27,13.20
2008,07,16,01,28,13.10
2008,07,16,01,29,13.10
2008,07,16,01,30,13.10
2008,07,16,01,31,13.10
2008,07,16,01,32,13.00
2008,07,16,01,33,13.00
2008,07,16,01,34,12.90
2008,07,16,01,35,12.90
2008,07,16,01,36,12.90
2008,07,16,01,37,12.80
2008,07,16,01,38,12.80
2008,07,16,01,39,12.80
2008,07,16,01,40,12.80
2008,07,16,01,41,12.80
2008,07,16,01,42,12.80
2008,07,16,01,43,12.80
2008,07,16,01,44,12.80
2008,07,16,01,45,12.80
2008,07,16,01,46,12.70
2008,07,16,01,47,12.70
2008,07,16,01,48,12.70
2008,07,16,01,49,12.70
2008,07,16,01,50,12.70
2008,07,16,01,51,12.70
2008,07,16,01,52,12.70
2008,07,16,01,53,12.70
2008,07,16,01,54,12.60
2008,07,16,01,55,12.60
2008,07,16,01,56,12.60
2008,07,16,01,57,12.60
2008,07,16,01,58,12.60
2008,07,16,01,59,12.50
2008,07,16,02,00,12.50
2008,07,16,02,01,12.40
2008,07,16,02,02,12.40
2008,07,16,02,03,12.40
2008,07,16,02,04,12.40
2008,07,16,02,05,12.40
2008,07,16,02,06,12.40
2008,07,16,02,07,12.40
2008,07,16,02,08,12.40
2008,07,16,02,09,12.40
2008,07,16,02,10,12.40
2008,07,16,02,11,12.40
2008,07,16,02,12,12.40
2008,07,16,02,13,12.30
2008,07,16,02,14,12.30
2008,07,16,02,15,12.30
2008,07,16,02,16,12.30
2008,07,16,02,17,12.30
2008,07,16,02,18,12.30
2008,07,16,02,19,12.20
2008,07,16,02,20,12.20
2008,07,16,02,21,12.20
2008,07,16,02,22,12.20
2008,07,16,02,23,12.10
2008,07,16,02,24,12.10
2008,07,16,02,25,12.10
2008,07,16,02,26,12.10
2008,07,16,02,27,12.10
2008,07,16,02,28,12.10
2008,07,16,02,29,12.10
2008,07,16,02,30,12.10
2008,07,16,02,31,12.10
2008,07,16,02,32,12.10
2008,07,16,02,33,12.10
2008,07,16,02,34,12.10
2008,07,16,02,35,12.10
2008,07,16,02,36,12.10
2008,07,16,02,37,12.10
2008,07,16,02,38,12.10
2008,07,16,02,39,12.10
2008,07,16,02,40,12.10
2008,07,16,02,41,12.10
2008,07,16,02,42,12.10
2008,07,16,02,43,12.10
2008,07,16,02,44,12.10
2008,07,16,02,45,12.10
2008,07,16,02,46,12.00
2008,07,16,02,47,12.00
2008,07,16,02,48,12.00
2008,07,16,02,49,12.00
2008,07,16,02,50,12.00
2008,07,16,02,51,12.00
2008,07,16,02,52,12.00
2008,07,16,02,53,11.90
2008,07,16,02,54,11.90
2008,07,16,02,55,11.90
2008,07,16,02,56,11.90
2008,07,16,02,57,11.90
2008,07,16,02,58,11.90
2008,07,16,02,59,11.90
2008,07,16,03,00,11.90
2008,07,16,03,01,11.80
2008,07,16,03,02,11.80
2008,07,16,03,03,11.90
2008,07,16,03,04,11.90
2008,07,16,03,05,11.90
2008,07,16,03,06,11.90
2008,07,16,03,07,11.90
2008,07,16,03,08,11.90
2008,07,16,03,09,11.90
2008,07,16,03,10,11.90
2008,07,16,03,11,12.00
2008,07,16,03,12,12.00
2008,07,16,03,13,12.00
2008,07,16,03,14,12.00
2008,07,16,03,15,12.00
2008,07,16,03,16,11.90
2008,07,16,03,17,11.90
2008,07,16,03,18,11.90
2008,07,16,03,19,11.90
2008,07,16,03,20,11.90
2008,07,16,03,21,11.90
2008,07,16,03,22,11.90
2008,07,16,03,23,11.80
2008,07,16,03,24,11.80
2008,07,16,03,25,11.80
2008,07,16,03,26,11.80
2008,07,16,03,27,11.80
2008,07,16,03,28,11.70
2008,07,16,03,29,11.70
2008,07,16,03,30,11.70
2008,07,16,03,31,11.70
2008,07,16,03,32,11.70
2008,07,16,03,33,11.70
2008,07,16,03,34,11.70
2008,07,16,03,35,11.60
2008,07,16,03,36,11.60
2008,07,16,03,37,11.60
2008,07,16,03,38,11.60
2008,07,16,03,39,11.60
2008,07,16,03,40,11.60
2008,07,16,03,41,11.60
2008,07,16,03,42,11.60
2008,07,16,03,43,11.60
2008,07,16,03,44,11.70
2008,07,16,03,45,11.70
2008,07,16,03,46,11.70
2008,07,16,03,47,11.70
2008,07,16,03,48,11.70
2008,07,16,03,49,11.80
2008,07,16,03,50,11.80
2008,07,16,03,51,11.80
2008,07,16,03,52,11.80
2008,07,16,03,53,11.80
2008,07,16,03,54,11.80
2008,07,16,03,55,11.80
2008,07,16,03,56,11.80
2008,07,16,03,57,11.80
2008,07,16,03,58,11.80
2008,07,16,03,59,11.80
2008,07,16,04,00,11.70
2008,07,16,04,01,11.70
2008,07,16,04,02,11.70
2008,07,16,04,03,11.70
2008,07,16,04,05,11.60
2008,07,16,04,06,11.60
2008,07,16,04,07,11.60
2008,07,16,04,08,11.60
2008,07,16,04,09,11.60
2008,07,16,04,10,11.60
2008,07,16,04,11,11.50
2008,07,16,04,12,11.50
2008,07,16,04,13,11.50
2008,07,16,04,14,11.40
2008,07,16,04,15,11.40
2008,07,16,04,16,11.40
2008,07,16,04,17,11.40
2008,07,16,04,18,11.40
2008,07,16,04,19,11.30
2008,07,16,04,20,11.30
2008,07,16,04,21,11.30
2008,07,16,04,22,11.30
2008,07,16,04,23,11.20
2008,07,16,04,24,11.20
2008,07,16,04,25,11.20
2008,07,16,04,26,11.10
2008,07,16,04,27,11.10
2008,07,16,04,28,11.00
2008,07,16,04,29,11.00
2008,07,16,04,30,10.90
2008,07,16,04,31,10.90
2008,07,16,04,32,10.90
2008,07,16,04,33,10.80
2008,07,16,04,34,10.80
2008,07,16,04,35,10.80
2008,07,16,04,36,10.80
2008,07,16,04,37,10.80
2008,07,16,04,38,10.80
2008,07,16,04,39,10.80
2008,07,16,04,40,10.80
2008,07,16,04,41,10.80
2008,07,16,04,42,10.80
2008,07,16,04,43,10.80
2008,07,16,04,44,10.80
2008,07,16,04,45,10.90
2008,07,16,04,46,10.90
2008,07,16,04,47,10.90
2008,07,16,04,48,10.90
2008,07,16,04,49,10.90
2008,07,16,04,50,10.90
2008,07,16,04,51,10.90
2008,07,16,04,52,11.00
2008,07,16,04,53,10.90
2008,07,16,04,54,10.90
2008,07,16,04,55,10.90
2008,07,16,04,56,11.00
2008,07,16,04,57,10.90
2008,07,16,04,58,10.90
2008,07,16,04,59,10.90
2008,07,16,05,00,10.90
2008,07,16,05,01,10.90
2008,07,16,05,02,10.90
2008,07,16,05,03,10.80
2008,07,16,05,04,10.80
2008,07,16,05,05,10.80
2008,07,16,05,06,10.80
2008,07,16,05,07,10.80
2008,07,16,05,08,10.80
2008,07,16,05,09,10.80
2008,07,16,05,10,10.80
2008,07,16,05,11,10.80
2008,07,16,05,12,10.80
2008,07,16,05,13,10.80
2008,07,16,05,14,10.80
2008,07,16,05,15,10.80
2008,07,16,05,16,10.80
2008,07,16,05,17,10.80
2008,07,16,05,18,10.80
2008,07,16,05,19,10.80
2008,07,16,05,20,10.80
2008,07,16,05,21,10.80
2008,07,16,05,22,10.80
2008,07,16,05,23,10.80
2008,07,16,05,24,10.80
2008,07,16,05,25,10.90
2008,07,16,05,26,10.90
2008,07,16,05,27,10.90
2008,07,16,05,28,10.90
2008,07,16,05,29,10.90
2008,07,16,05,30,10.90
2008,07,16,05,31,10.90
2008,07,16,05,32,10.90
2008,07,16,05,33,10.80
2008,07,16,05,34,10.80
2008,07,16,05,35,10.80
2008,07,16,05,36,10.80
2008,07,16,05,37,10.80
2008,07,16,05,38,10.80
2008,07,16,05,39,10.80
2008,07,16,05,40,10.80
2008,07,16,05,41,10.80
2008,07,16,05,42,10.80
2008,07,16,05,43,10.90
2008,07,16,05,44,10.90
2008,07,16,05,45,10.90
2008,07,16,05,46,10.90
2008,07,16,05,47,11.00
2008,07,16,05,48,11.00
2008,07,16,05,49,11.00
2008,07,16,05,50,11.00
2008,07,16,05,51,11.10
2008,07,16,05,52,11.10
2008,07,16,05,53,11.10
2008,07,16,05,54,11.10
2008,07,16,05,55,11.10
2008,07,16,05,56,11.10
2008,07,16,05,57,11.10
2008,07,16,05,58,11.10
2008,07,16,05,59,11.10
2008,07,16,06,00,11.10
2008,07,16,06,01,11.10
2008,07,16,06,02,11.10
2008,07,16,06,03,11.10
2008,07,16,06,04,11.10
2008,07,16,06,05,11.10
2008,07,16,06,06,11.10
2008,07,16,06,07,11.10
2008,07,16,06,08,11.10
2008,07,16,06,09,11.10
2008,07,16,06,10,11.10
2008,07,16,06,11,11.20
2008,07,16,06,12,11.20
2008,07,16,06,13,11.20
2008,07,16,06,14,11.20
2008,07,16,06,15,11.30
2008,07,16,06,16,11.30
2008,07,16,06,17,11.30
2008,07,16,06,18,11.30
2008,07,16,06,19,11.40
2008,07,16,06,20,11.40
2008,07,16,06,21,11.40
2008,07,16,06,22,11.40
2008,07,16,06,23,11.40
2008,07,16,06,24,11.50
2008,07,16,06,25,11.50
2008,07,16,06,26,11.50
2008,07,16,06,27,11.50
2008,07,16,06,28,11.60
2008,07,16,06,29,11.60
2008,07,16,06,30,11.60
2008,07,16,06,31,11.60
2008,07,16,06,32,11.60
2008,07,16,06,33,11.60
2008,07,16,06,34,11.60
2008,07,16,06,35,11.60
2008,07,16,06,36,11.60
2008,07,16,06,37,11.60
2008,07,16,06,38,11.70
2008,07,16,06,39,11.70
2008,07,16,06,40,11.70
2008,07,16,06,41,11.70
2008,07,16,06,42,11.70
2008,07,16,06,43,11.70
2008,07,16,06,44,11.70
2008,07,16,06,45,11.70
2008,07,16,06,46,11.80
2008,07,16,06,47,11.80
2008,07,16,06,48,11.80
2008,07,16,06,49,11.90
2008,07,16,06,50,11.90
2008,07,16,06,51,11.90
2008,07,16,06,52,11.90
2008,07,16,06,53,12.00
2008,07,16,06,54,12.00
2008,07,16,06,55,12.10
2008,07,16,06,56,12.10
2008,07,16,06,57,12.10
2008,07,16,06,58,12.20
2008,07,16,06,59,12.20
2008,07,16,07,00,12.20
2008,07,16,07,01,12.30
2008,07,16,07,02,12.30
2008,07,16,07,03,12.30
2008,07,16,07,04,12.40
2008,07,16,07,05,12.40
2008,07,16,07,06,12.40
2008,07,16,07,07,12.50
2008,07,16,07,08,12.50
2008,07,16,07,09,12.60
2008,07,16,07,10,12.60
2008,07,16,07,11,12.60
2008,07,16,07,12,12.70
2008,07,16,07,13,12.70
2008,07,16,07,14,12.70
2008,07,16,07,15,12.80
2008,07,16,07,16,12.80
2008,07,16,07,17,12.90
2008,07,16,07,18,12.90
2008,07,16,07,19,12.90
2008,07,16,07,20,13.00
2008,07,16,07,21,13.10
2008,07,16,07,22,13.10
2008,07,16,07,23,13.20
2008,07,16,07,24,13.30
2008,07,16,07,25,13.30
2008,07,16,07,26,13.30
2008,07,16,07,27,13.40
2008,07,16,07,28,13.40
2008,07,16,07,29,13.50
2008,07,16,07,30,13.60
2008,07,16,07,31,13.60
2008,07,16,07,32,13.70
2008,07,16,07,33,13.80
2008,07,16,07,34,13.90
2008,07,16,07,35,13.90
2008,07,16,07,36,14.00
2008,07,16,07,37,14.10
2008,07,16,07,38,14.10
2008,07,16,07,39,14.20
2008,07,16,07,40,14.20
2008,07,16,07,41,14.30
2008,07,16,07,42,14.40
2008,07,16,07,43,14.40
2008,07,16,07,44,14.50
2008,07,16,07,45,14.50
2008,07,16,07,46,14.60
2008,07,16,07,47,14.70
2008,07,16,07,48,14.70
2008,07,16,07,49,14.80
2008,07,16,07,50,14.80
2008,07,16,07,51,14.90
2008,07,16,07,52,15.00
2008,07,16,07,53,15.00
2008,07,16,07,54,15.00
2008,07,16,07,55,15.00
2008,07,16,07,56,15.00
2008,07,16,07,57,15.00
2008,07,16,07,58,15.10
2008,07,16,07,59,15.20
2008,07,16,08,00,15.30
2008,07,16,08,01,15.40
2008,07,16,08,02,15.40
2008,07,16,08,03,15.50
2008,07,16,08,04,15.50
2008,07,16,08,05,15.60
2008,07,16,08,06,15.60
2008,07,16,08,07,15.60
2008,07,16,08,08,15.70
2008,07,16,08,09,15.70
2008,07,16,08,10,15.80
2008,07,16,08,11,15.80
2008,07,16,08,12,15.90
2008,07,16,08,13,16.00
2008,07,16,08,14,16.00
2008,07,16,08,15,16.10
2008,07,16,08,16,16.20
2008,07,16,08,17,16.20
2008,07,16,08,18,16.30
2008,07,16,08,19,16.30
2008,07,16,08,20,16.40
2008,07,16,08,21,16.50
2008,07,16,08,22,16.50
2008,07,16,08,23,16.60
2008,07,16,08,24,16.70
2008,07,16,08,25,16.70
2008,07,16,08,26,16.80
2008,07,16,08,27,16.90
2008,07,16,08,28,17.00
2008,07,16,08,29,17.00
2008,07,16,08,30,17.10
2008,07,16,08,31,17.10
2008,07,16,08,32,17.20
2008,07,16,08,33,17.30
2008,07,16,08,34,17.30
2008,07,16,08,35,17.30
2008,07,16,08,36,17.40
2008,07,16,08,37,17.40
2008,07,16,08,38,17.50
2008,07,16,08,39,17.60
2008,07,16,08,40,17.60
2008,07,16,08,41,17.70
2008,07,16,08,42,17.80
2008,07,16,08,43,17.80
2008,07,16,08,44,17.90
2008,07,16,08,45,18.00
2008,07,16,08,46,18.00
2008,07,16,08,47,18.10
2008,07,16,08,48,18.10
2008,07,16,08,49,18.20
2008,07,16,08,50,18.20
2008,07,16,08,51,18.30
2008,07,16,08,52,18.30
2008,07,16,08,53,18.40
2008,07,16,08,54,18.40
2008,07,16,08,55,18.50
2008,07,16,08,56,18.60
2008,07,16,08,57,18.60
2008,07,16,08,58,18.70
2008,07,16,08,59,18.70
2008,07,16,09,00,18.80
2008,07,16,09,01,18.80
2008,07,16,09,02,18.80
2008,07,16,09,03,18.80
2008,07,16,09,04,18.90
2008,07,16,09,05,19.00
2008,07,16,09,06,19.10
2008,07,16,09,07,19.20
2008,07,16,09,08,19.30
2008,07,16,09,09,19.40
2008,07,16,09,10,19.50
2008,07,16,09,11,19.60
2008,07,16,09,12,19.70
2008,07,16,09,13,19.70
2008,07,16,09,14,19.80
2008,07,16,09,15,19.70
2008,07,16,09,16,19.70
2008,07,16,09,17,19.70
2008,07,16,09,18,19.70
2008,07,16,09,19,19.70
2008,07,16,09,20,19.80
2008,07,16,09,21,19.80
2008,07,16,09,22,19.90
2008,07,16,09,23,20.00
2008,07,16,09,24,20.10
2008,07,16,09,25,20.20
2008,07,16,09,26,20.30
2008,07,16,09,27,20.40
2008,07,16,09,28,20.40
2008,07,16,09,29,20.40
2008,07,16,09,30,20.50
2008,07,16,09,31,20.50
2008,07,16,09,32,20.40
2008,07,16,09,33,20.40
2008,07,16,09,34,20.40
2008,07,16,09,35,20.30
2008,07,16,09,36,20.20
2008,07,16,09,37,20.00
2008,07,16,09,38,19.90
2008,07,16,09,39,19.80
2008,07,16,09,40,19.70
2008,07,16,09,41,19.70
2008,07,16,09,42,19.60
2008,07,16,09,43,19.60
2008,07,16,09,44,19.50
2008,07,16,09,45,19.50
2008,07,16,09,46,19.50
2008,07,16,09,47,19.50
2008,07,16,09,48,19.50
2008,07,16,09,49,19.40
2008,07,16,09,50,19.30
2008,07,16,09,51,19.30
2008,07,16,09,52,19.30
2008,07,16,09,53,19.20
2008,07,16,09,54,19.20
2008,07,16,09,55,19.20
2008,07,16,09,56,19.30
2008,07,16,09,57,19.30
2008,07,16,09,58,19.40
2008,07,16,09,59,19.30
2008,07,16,10,00,19.40
2008,07,16,10,01,19.40
2008,07,16,10,02,19.40
2008,07,16,10,03,19.50
2008,07,16,10,04,19.50
2008,07,16,10,05,19.40
2008,07,16,10,06,19.40
2008,07,16,10,07,19.40
2008,07,16,10,08,19.50
2008,07,16,10,09,19.60
2008,07,16,10,10,19.70
2008,07,16,10,11,19.80
2008,07,16,10,12,19.80
2008,07,16,10,13,19.90
2008,07,16,10,14,19.90
2008,07,16,10,15,19.80
2008,07,16,10,16,19.90
2008,07,16,10,17,20.00
2008,07,16,10,18,20.10
2008,07,16,10,19,20.20
2008,07,16,10,20,20.20
2008,07,16,10,21,20.20
2008,07,16,10,22,20.20
2008,07,16,10,23,20.30
2008,07,16,10,24,20.40
2008,07,16,10,25,20.40
2008,07,16,10,26,20.30
2008,07,16,10,27,20.30
2008,07,16,10,28,20.20
2008,07,16,10,29,20.00
2008,07,16,10,30,19.80
2008,07,16,10,31,19.70
2008,07,16,10,32,19.70
2008,07,16,10,33,19.70
2008,07,16,10,34,19.60
2008,07,16,10,35,19.60
2008,07,16,10,36,19.50
2008,07,16,10,37,19.50
2008,07,16,10,38,19.40
2008,07,16,10,39,19.30
2008,07,16,10,40,19.30
2008,07,16,10,41,19.20
2008,07,16,10,42,19.20
2008,07,16,10,43,19.20
2008,07,16,10,44,19.20
2008,07,16,10,45,19.10
2008,07,16,10,46,19.10
2008,07,16,10,47,19.20
2008,07,16,10,48,19.20
2008,07,16,10,49,19.20
2008,07,16,10,50,19.20
2008,07,16,10,51,19.30
2008,07,16,10,52,19.50
2008,07,16,10,53,19.70
2008,07,16,10,54,19.80
2008,07,16,10,55,19.80
2008,07,16,10,56,19.80
2008,07,16,10,57,19.80
2008,07,16,10,58,19.90
2008,07,16,10,59,19.90
2008,07,16,11,00,19.90
2008,07,16,11,01,19.90
2008,07,16,11,02,19.90
2008,07,16,11,03,19.90
2008,07,16,11,04,19.80
2008,07,16,11,05,19.70
2008,07,16,11,06,19.70
2008,07,16,11,07,19.70
2008,07,16,11,08,19.70
2008,07,16,11,09,19.60
2008,07,16,11,10,19.50
2008,07,16,11,11,19.40
2008,07,16,11,12,19.30
2008,07,16,11,13,19.10
2008,07,16,11,14,19.00
2008,07,16,11,15,19.00
2008,07,16,11,16,19.10
2008,07,16,11,17,19.10
2008,07,16,11,18,19.00
2008,07,16,11,19,19.00
2008,07,16,11,20,18.90
2008,07,16,11,21,18.90
2008,07,16,11,22,19.00
2008,07,16,11,23,19.10
2008,07,16,11,24,19.10
2008,07,16,11,25,19.10
2008,07,16,11,26,19.10
2008,07,16,11,27,19.10
2008,07,16,11,28,19.10
2008,07,16,11,29,19.10
2008,07,16,11,30,19.10
2008,07,16,11,31,19.10
2008,07,16,11,32,19.10
2008,07,16,11,33,19.10
2008,07,16,11,34,19.10
2008,07,16,11,35,19.10
2008,07,16,11,36,19.20
2008,07,16,11,37,19.30
2008,07,16,11,38,19.40
2008,07,16,11,39,19.50
2008,07,16,11,40,19.60
2008,07,16,11,41,19.70
2008,07,16,11,42,19.70
2008,07,16,11,43,19.70
2008,07,16,11,44,19.70
2008,07,16,11,45,19.60
2008,07,16,11,46,19.60
2008,07,16,11,47,19.60
2008,07,16,11,48,19.50
2008,07,16,11,49,19.50
2008,07,16,11,50,19.50
2008,07,16,11,51,19.50
2008,07,16,11,52,19.50
2008,07,16,11,53,19.60
2008,07,16,11,54,19.70
2008,07,16,11,55,19.80
2008,07,16,11,56,19.80
2008,07,16,11,57,19.80
2008,07,16,11,58,19.80
2008,07,16,11,59,19.70
2008,07,16,12,00,19.70
2008,07,16,12,01,19.60
2008,07,16,12,02,19.50
2008,07,16,12,03,19.40
2008,07,16,12,04,19.40
2008,07,16,12,05,19.30
2008,07,16,12,06,19.30
2008,07,16,12,07,19.40
2008,07,16,12,08,19.50
2008,07,16,12,09,19.60
2008,07,16,12,10,19.70
2008,07,16,12,11,19.90
2008,07,16,12,12,20.00
2008,07,16,12,13,20.20
2008,07,16,12,14,20.40
2008,07,16,12,15,20.30
2008,07,16,12,16,20.20
2008,07,16,12,17,20.10
2008,07,16,12,18,20.10
2008,07,16,12,19,20.20
2008,07,16,12,20,20.20
2008,07,16,12,21,20.20
2008,07,16,12,22,20.20
2008,07,16,12,23,20.30
2008,07,16,12,24,20.50
2008,07,16,12,25,20.50
2008,07,16,12,26,20.60
2008,07,16,12,27,20.60
2008,07,16,12,28,20.60
2008,07,16,12,29,20.60
2008,07,16,12,30,20.60
2008,07,16,12,31,20.80
2008,07,16,12,32,20.70
2008,07,16,12,33,20.70
2008,07,16,12,34,20.70
2008,07,16,12,35,20.70
2008,07,16,12,36,20.80
2008,07,16,12,37,20.70
2008,07,16,12,38,20.50
2008,07,16,12,39,20.30
2008,07,16,12,40,20.30
2008,07,16,12,41,20.10
2008,07,16,12,42,19.90
2008,07,16,12,43,19.80
2008,07,16,12,44,19.70
2008,07,16,12,45,19.60
2008,07,16,12,46,19.60
2008,07,16,12,47,19.60
2008,07,16,12,48,19.70
2008,07,16,12,49,19.80
2008,07,16,12,50,19.90
2008,07,16,12,51,20.00
2008,07,16,12,52,20.00
2008,07,16,12,53,20.10
2008,07,16,12,54,20.20
2008,07,16,12,55,20.30
2008,07,16,12,56,20.50
2008,07,16,12,57,20.60
2008,07,16,12,58,20.70
2008,07,16,12,59,20.70
2008,07,16,13,00,20.80
2008,07,16,13,01,20.90
2008,07,16,13,02,20.90
2008,07,16,13,03,21.00
2008,07,16,13,04,21.10
2008,07,16,13,05,21.10
2008,07,16,13,06,21.30
2008,07,16,13,07,21.40
2008,07,16,13,08,21.50
2008,07,16,13,09,21.60
2008,07,16,13,10,21.80
2008,07,16,13,11,21.90
2008,07,16,13,12,22.00
2008,07,16,13,13,22.10
2008,07,16,13,14,22.10
2008,07,16,13,15,22.10
2008,07,16,13,16,22.20
2008,07,16,13,17,22.20
2008,07,16,13,18,22.20
2008,07,16,13,19,22.20
2008,07,16,13,20,22.20
2008,07,16,13,21,22.20
2008,07,16,13,22,22.30
2008,07,16,13,23,22.30
2008,07,16,13,24,22.40
2008,07,16,13,25,22.50
2008,07,16,13,26,22.60
2008,07,16,13,27,22.60
2008,07,16,13,28,22.70
2008,07,16,13,29,22.80
2008,07,16,13,30,22.80
2008,07,16,13,31,22.80
2008,07,16,13,32,22.80
2008,07,16,13,33,22.90
2008,07,16,13,34,23.00
2008,07,16,13,35,23.00
2008,07,16,13,36,23.10
2008,07,16,13,37,23.20
2008,07,16,13,38,23.30
2008,07,16,13,39,23.40
2008,07,16,13,40,23.40
2008,07,16,13,41,23.30
2008,07,16,13,42,23.40
2008,07,16,13,43,23.30
2008,07,16,13,44,23.30
2008,07,16,13,45,23.30
2008,07,16,13,46,23.20
2008,07,16,13,47,23.20
2008,07,16,13,48,23.20
2008,07,16,13,49,23.20
2008,07,16,13,50,23.20
2008,07,16,13,51,23.20
2008,07,16,13,52,23.10
2008,07,16,13,53,23.10
2008,07,16,13,54,23.10
2008,07,16,13,55,23.10
2008,07,16,13,56,23.10
2008,07,16,13,57,23.10
2008,07,16,13,58,23.00
2008,07,16,13,59,23.00
2008,07,16,14,00,23.10
2008,07,16,14,01,23.10
2008,07,16,14,02,23.20
2008,07,16,14,03,23.20
2008,07,16,14,04,23.20
2008,07,16,14,05,23.10
2008,07,16,14,06,23.10
2008,07,16,14,07,23.00
2008,07,16,14,08,23.00
2008,07,16,14,09,22.90
2008,07,16,14,10,22.90
2008,07,16,14,11,22.80
2008,07,16,14,12,22.70
2008,07,16,14,13,22.60
2008,07,16,14,14,22.60
2008,07,16,14,15,22.60
2008,07,16,14,16,22.60
2008,07,16,14,17,22.60
2008,07,16,14,18,22.50
2008,07,16,14,19,22.50
2008,07,16,14,20,22.50
2008,07,16,14,21,22.50
2008,07,16,14,22,22.50
2008,07,16,14,23,22.50
2008,07,16,14,24,22.70
2008,07,16,14,25,22.80
2008,07,16,14,26,22.90
2008,07,16,14,27,23.00
2008,07,16,14,28,23.10
2008,07,16,14,29,23.10
2008,07,16,14,30,23.20
2008,07,16,14,31,23.20
2008,07,16,14,32,23.30
2008,07,16,14,33,23.30
2008,07,16,14,34,23.40
2008,07,16,14,35,23.40
2008,07,16,14,36,23.30
2008,07,16,14,37,23.30
2008,07,16,14,38,23.20
2008,07,16,14,39,23.20
2008,07,16,14,40,23.10
2008,07,16,14,41,23.10
2008,07,16,14,42,23.20
2008,07,16,14,43,23.20
2008,07,16,14,44,23.20
2008,07,16,14,45,23.20
2008,07,16,14,46,23.00
2008,07,16,14,47,22.90
2008,07,16,14,48,22.90
2008,07,16,14,49,22.90
2008,07,16,14,50,22.90
2008,07,16,14,51,23.00
2008,07,16,14,52,22.90
2008,07,16,14,53,22.80
2008,07,16,14,54,22.70
2008,07,16,14,55,22.60
2008,07,16,14,56,22.60
2008,07,16,14,57,22.60
2008,07,16,14,58,22.70
2008,07,16,14,59,22.70
2008,07,16,15,00,22.60
2008,07,16,15,01,22.60
2008,07,16,15,02,22.60
2008,07,16,15,03,22.70
2008,07,16,15,04,22.90
2008,07,16,15,05,22.90
2008,07,16,15,06,22.90
2008,07,16,15,07,22.80
2008,07,16,15,08,22.80
2008,07,16,15,09,22.80
2008,07,16,15,10,22.80
2008,07,16,15,11,22.80
2008,07,16,15,12,22.90
2008,07,16,15,13,22.90
2008,07,16,15,14,23.00
2008,07,16,15,15,23.00
2008,07,16,15,16,23.00
2008,07,16,15,17,23.00
2008,07,16,15,18,23.00
2008,07,16,15,19,23.00
2008,07,16,15,20,23.00
2008,07,16,15,21,23.00
2008,07,16,15,22,23.00
2008,07,16,15,23,23.10
2008,07,16,15,24,23.10
2008,07,16,15,25,23.10
2008,07,16,15,26,23.00
2008,07,16,15,27,23.00
2008,07,16,15,28,23.10
2008,07,16,15,29,23.20
2008,07,16,15,30,23.20
2008,07,16,15,31,23.20
2008,07,16,15,32,23.30
2008,07,16,15,33,23.40
2008,07,16,15,34,23.50
2008,07,16,15,35,23.50
2008,07,16,15,36,23.40
2008,07,16,15,37,23.40
2008,07,16,15,38,23.40
2008,07,16,15,39,23.40
2008,07,16,15,40,23.40
2008,07,16,15,41,23.40
2008,07,16,15,42,23.50
2008,07,16,15,43,23.70
2008,07,16,15,44,23.80
2008,07,16,15,45,23.90
2008,07,16,15,46,23.90
2008,07,16,15,47,23.90
2008,07,16,15,48,23.80
2008,07,16,15,49,23.60
2008,07,16,15,50,23.40
2008,07,16,15,51,23.30
2008,07,16,15,52,23.20
2008,07,16,15,53,23.10
2008,07,16,15,54,23.00
2008,07,16,15,55,23.00
2008,07,16,15,56,23.00
2008,07,16,15,57,23.00
2008,07,16,15,58,23.00
2008,07,16,15,59,23.10
2008,07,16,16,00,23.10
2008,07,16,16,01,23.10
2008,07,16,16,02,23.20
2008,07,16,16,03,23.20
2008,07,16,16,04,23.30
2008,07,16,16,05,23.30
2008,07,16,16,06,23.30
2008,07,16,16,07,23.30
2008,07,16,16,08,23.30
2008,07,16,16,09,23.30
2008,07,16,16,10,23.20
2008,07,16,16,11,23.20
2008,07,16,16,12,23.10
2008,07,16,16,13,23.10
2008,07,16,16,14,23.10
2008,07,16,16,15,23.20
2008,07,16,16,16,23.20
2008,07,16,16,17,23.20
2008,07,16,16,18,23.20
2008,07,16,16,19,23.10
2008,07,16,16,20,23.00
2008,07,16,16,21,22.90
2008,07,16,16,22,22.80
2008,07,16,16,23,22.80
2008,07,16,16,24,22.70
2008,07,16,16,25,22.70
2008,07,16,16,26,22.70
2008,07,16,16,27,22.70
2008,07,16,16,28,22.80
2008,07,16,16,29,22.80
2008,07,16,16,30,22.70
2008,07,16,16,31,22.60
2008,07,16,16,32,22.60
2008,07,16,16,33,22.60
2008,07,16,16,34,22.50
2008,07,16,16,35,22.50
2008,07,16,16,36,22.50
2008,07,16,16,37,22.50
2008,07,16,16,38,22.60
2008,07,16,16,39,22.70
2008,07,16,16,40,22.70
2008,07,16,16,41,22.70
2008,07,16,16,42,22.70
2008,07,16,16,43,22.70
2008,07,16,16,44,22.60
2008,07,16,16,45,22.50
2008,07,16,16,46,22.50
2008,07,16,16,47,22.40
2008,07,16,16,48,22.40
2008,07,16,16,49,22.50
2008,07,16,16,50,22.50
2008,07,16,16,51,22.50
2008,07,16,16,52,22.50
2008,07,16,16,53,22.50
2008,07,16,16,54,22.60
2008,07,16,16,55,22.60
2008,07,16,16,56,22.70
2008,07,16,16,57,22.70
2008,07,16,16,58,22.70
2008,07,16,16,59,22.70
2008,07,16,17,00,22.70
2008,07,16,17,01,22.70
2008,07,16,17,02,22.60
2008,07,16,17,03,22.70
2008,07,16,17,04,22.70
2008,07,16,17,05,22.80
2008,07,16,17,06,22.80
2008,07,16,17,07,22.80
2008,07,16,17,08,22.80
2008,07,16,17,09,22.80
2008,07,16,17,10,22.70
2008,07,16,17,11,22.80
2008,07,16,17,12,22.80
2008,07,16,17,13,22.80
2008,07,16,17,14,22.80
2008,07,16,17,15,22.80
2008,07,16,17,16,22.80
2008,07,16,17,17,22.80
2008,07,16,17,18,22.80
2008,07,16,17,19,22.80
2008,07,16,17,20,22.80